Terug naar catalogus

CZ-6A DEB

ActiefPO
NORAD 63393·DEBRIS·🇨🇳 China

Gelanceerd Aug 6, 2024 vanaf Taiyuan Satellite Launch Center

Loading…

Volgende Passages (komende 24 uur)

TLE

VersSource: Space-Track

Epoch: Sep 14, 2026, 11:48 UTC

1 63393U 24140ADQ 26257.49168479  .00000414  00000-0  20421-3 0  9996
2 63393  89.0195 267.5919 0068299 273.2832  86.0543 14.14587989108234

Volg CZ-6A DEB in realtime met AllMySat

Download on the App Store